CW1662 Weather Reports


Display with metric or nautical units.
time (UTC)temp
F
wind
direction
speed
MPH
gust
MPH
rain 1hr
in
rain 24hr
in
rain mn
in
humidity
%
barometer
mb
20260504000334 58 287 0.0 3.0 0.00 0.00 0.00 43 1012.2
20260503235859 59 287 1.0 3.0 0.00 0.00 0.00 42 1012.2
20260503235342 59 287 1.0 3.0 0.00 0.00 0.00 42 1012.2
20260503234826 60 273 2.0 4.0 0.00 0.00 0.00 39 1012.2
20260503234334 60 273 3.0 10.0 0.00 0.00 0.00 39 1012.2
20260503233838 60 292 2.0 10.0 0.00 0.00 0.00 40 1012.2
20260503233343 60 290 2.0 4.0 0.00 0.00 0.00 41 1012.1
20260503232832 61 287 3.0 4.0 0.00 0.00 0.00 39 1012.0
20260503232334 61 283 2.0 6.0 0.00 0.00 0.00 39 1012.0
20260503231840 61 284 3.0 5.0 0.00 0.00 0.00 38 1011.9
20260503231327 62 270 3.0 9.0 0.00 0.00 0.00 38 1012.0
20260503230835 62 290 5.0 8.0 0.00 0.00 0.00 35 1011.9
20260503230340 63 306 4.0 12.0 0.00 0.00 0.00 37 1012.0
20260503225844 63 300 6.0 12.0 0.00 0.00 0.00 35 1011.8
20260503225327 63 315 4.0 13.0 0.00 0.00 0.00 38 1011.7
20260503224832 63 279 8.0 12.0 0.00 0.00 0.00 35 1011.8
20260503224337 63 265 6.0 14.0 0.00 0.00 0.00 33 1011.8
20260503223825 63 275 5.0 14.0 0.00 0.00 0.00 37 1011.8
20260503223330 64 346 5.0 10.0 0.00 0.00 0.00 34 1011.9
20260503222837 63 333 3.0 10.0 0.00 0.00 0.00 35 1011.9
20260503222341 63 336 6.0 10.0 0.00 0.00 0.00 37 1012.0
20260503221825 64 325 6.0 12.0 0.00 0.00 0.00 35 1011.9
20260503221330 64 336 7.0 15.0 0.00 0.00 0.00 36 1012.0
20260503220834 64 309 5.0 15.0 0.00 0.00 0.00 35 1011.9
20260503220342 63 319 8.0 10.0 0.00 0.00 0.00 38 1012.0
20260503215827 64 285 4.0 9.0 0.00 0.00 0.00 36 1012.1
20260503215330 64 293 5.0 10.0 0.00 0.00 0.00 34 1012.0
20260503214835 64 311 6.0 10.0 0.00 0.00 0.00 34 1012.1
20260503214322 64 279 4.0 10.0 0.00 0.00 0.00 35 1012.1
20260503213830 64 311 3.0 12.0 0.00 0.00 0.00 34 1012.0
20260503213335 64 317 8.0 12.0 0.00 0.00 0.00 33 1012.2
20260503212859 64 275 6.0 12.0 0.00 0.00 0.00 33 1012.2
20260503212342 64 299 8.0 12.0 0.00 0.00 0.00 36 1012.0
20260503211826 64 342 4.0 10.0 0.00 0.00 0.00 35 1012.1
20260503211331 63 329 5.0 10.0 0.00 0.00 0.00 40 1012.2
20260503210835 63 316 5.0 14.0 0.00 0.00 0.00 33 1012.2
20260503210340 63 342 3.0 14.0 0.00 0.00 0.00 36 1012.2
20260503205845 64 302 7.0 12.0 0.00 0.00 0.00 36 1012.1
20260503205328 63 300 9.0 17.0 0.00 0.00 0.00 36 1012.1
20260503204837 64 326 4.0 17.0 0.00 0.00 0.00 36 1012.2
20260503204401 64 331 9.0 15.0 0.00 0.00 0.00 38 1012.2
20260503203828 64 287 6.0 15.0 0.00 0.00 0.00 35 1012.3
20260503203351 64 281 10.0 15.0 0.00 0.00 0.00 36 1012.3
20260503202838 64 278 9.0 12.0 0.00 0.00 0.00 35 1012.2
20260503202341 63 259 7.0 12.0 0.00 0.00 0.00 36 1012.4
20260503201826 63 325 8.0 16.0 0.00 0.00 0.00 37 1012.5
20260503201349 62 277 12.0 16.0 0.00 0.00 0.00 35 1012.5
20260503200837 63 274 9.0 12.0 0.00 0.00 0.00 37 1012.6
20260503200341 61 307 5.0 11.0 0.00 0.00 0.00 38 1012.6
20260503195825 61 355 5.0 14.0 0.00 0.00 0.00 37 1012.7
20260503195329 62 286 7.0 14.0 0.00 0.00 0.00 36 1012.9
20260503194853 62 316 7.0 16.0 0.00 0.00 0.00 37 1012.9
20260503194337 63 259 10.0 16.0 0.00 0.00 0.00 36 1012.8
20260503193826 63 304 8.0 19.0 0.00 0.00 0.00 35 1012.9
20260503193330 63 287 7.0 19.0 0.00 0.00 0.00 34 1012.9
20260503192855 63 290 6.0 13.0 0.00 0.00 0.00 36 1013.0
20260503192337 63 331 6.0 16.0 0.00 0.00 0.00 35 1013.0
20260503191842 64 333 9.0 16.0 0.00 0.00 0.00 34 1013.4
20260503191326 63 294 5.0 19.0 0.00 0.00 0.00 36 1013.2
20260503190834 62 303 10.0 19.0 0.00 0.00 0.00 38 1013.2
20260503190339 62 315 5.0 13.0 0.00 0.00 0.00 38 1013.2
20260503185843 62 325 7.0 15.0 0.00 0.00 0.00 39 1013.4
20260503185326 62 300 11.0 16.0 0.00 0.00 0.00 38 1013.4
20260503184830 62 312 10.0 16.0 0.00 0.00 0.00 40 1013.4
20260503184355 62 342 13.0 16.0 0.00 0.00 0.00 37 1013.4
20260503183842 62 264 7.0 16.0 0.00 0.00 0.00 40 1013.7
20260503183327 62 277 7.0 16.0 0.00 0.00 0.00 33 1013.8
20260503182850 62 292 7.0 14.0 0.00 0.00 0.00 35 1013.7
20260503182336 62 301 7.0 16.0 0.00 0.00 0.00 39 1013.8
20260503181824 61 336 6.0 16.0 0.00 0.00 0.00 38 1013.8
20260503181329 61 252 11.0 14.0 0.00 0.00 0.00 34 1013.8
20260503180853 61 303 6.0 16.0 0.00 0.00 0.00 36 1013.9
20260503180337 61 5 5.0 16.0 0.00 0.00 0.00 33 1013.9
20260503175840 61 260 7.0 13.0 0.00 0.00 0.00 39 1013.9
20260503175344 61 311 7.0 17.0 0.00 0.00 0.00 35 1013.8
20260503174828 60 346 9.0 17.0 0.00 0.00 0.00 38 1013.9
20260503174333 60 297 11.0 18.0 0.00 0.00 0.00 36 1014.0
20260503173841 60 294 12.0 18.0 0.00 0.00 0.00 35 1014.1
20260503173346 60 292 7.0 14.0 0.00 0.00 0.00 43 1014.2
20260503172830 60 275 9.0 13.0 0.00 0.00 0.00 39 1014.2
20260503172333 59 288 7.0 16.0 0.00 0.00 0.00 37 1014.2
20260503171858 60 294 10.0 16.0 0.00 0.00 0.00 43 1014.3
20260503171341 59 271 10.0 14.0 0.00 0.00 0.00 42 1014.3
20260503170826 59 269 5.0 17.0 0.00 0.00 0.00 37 1014.4
20260503170332 59 315 11.0 17.0 0.00 0.00 0.00 41 1014.5
20260503150848 54 287 7.0 17.0 0.00 0.00 0.00 48 1015.7
20260503150331 54 299 12.0 15.0 0.00 0.00 0.00 49 1015.7
20260503131328 49 336 8.0 15.0 0.00 0.00 0.00 57 1016.1
20260503130853 49 287 5.0 15.0 0.00 0.00 0.00 61 1016.0
20260503130337 49 311 9.0 14.0 0.00 0.00 0.00 61 1016.0
20260503110339 40 297 0.0 0.0 0.00 0.00 0.00 78 1015.1
20260503090327 39 297 2.0 2.0 0.00 0.01 0.00 75 1014.0
20260503081333 40 297 1.0 2.0 0.00 0.01 0.00 72 1013.8
20260503080838 41 297 1.0 3.0 0.00 0.01 0.00 72 1013.7
20260503080326 41 297 1.0 3.0 0.00 0.01 0.00 71 1013.7
20260503072840 42 307 4.0 7.0 0.00 0.01 0.00 71 1013.3
20260503072327 43 321 3.0 6.0 0.00 0.01 0.00 70 1013.3
20260503071835 43 307 4.0 7.0 0.00 0.01 0.00 70 1013.3
20260503071339 43 299 3.0 7.0 0.00 0.01 0.00 70 1013.2
20260503070904 43 306 4.0 7.0 0.00 0.01 0.00 70 1013.2
20260503070328 43 313 4.0 6.0 0.00 0.01 0.00 70 1013.1
20260503060326 45 315 5.0 7.0 0.00 0.01 0.00 72 1013.0
20260503054823 45 298 3.0 5.0 0.00 0.01 0.00 72 1012.9
20260503054331 45 294 3.0 6.0 0.00 0.01 0.00 73 1013.0
20260503053835 45 313 3.0 6.0 0.00 0.01 0.00 72 1012.9
20260503053340 45 306 3.0 7.0 0.00 0.01 0.00 72 1013.0
20260503052824 45 286 3.0 7.0 0.00 0.01 0.00 72 1013.0
20260503052330 45 306 4.0 9.0 0.00 0.01 0.00 73 1013.0
20260503051837 44 319 5.0 9.0 0.00 0.01 0.00 73 1013.0
20260503051325 44 319 3.0 6.0 0.00 0.01 0.00 73 1013.1
20260503050850 44 311 4.0 5.0 0.00 0.01 0.00 73 1013.2
20260503050332 44 298 3.0 6.0 0.00 0.01 0.00 73 1013.1
20260503045838 45 278 3.0 6.0 0.00 0.01 0.00 72 1013.2
20260503045328 44 269 3.0 4.0 0.00 0.01 0.00 72 1013.2
20260503044836 45 269 2.0 6.0 0.00 0.01 0.00 72 1013.3
20260503044400 45 273 4.0 6.0 0.00 0.01 0.00 72 1013.4
20260503043823 45 275 3.0 5.0 0.00 0.01 0.00 72 1013.3
20260503043329 44 283 3.0 6.0 0.00 0.01 0.00 73 1013.2
20260503042837 44 308 4.0 6.0 0.00 0.01 0.00 74 1013.2
20260503042341 44 323 4.0 6.0 0.00 0.01 0.00 74 1013.2
20260503041825 44 310 4.0 6.0 0.00 0.01 0.00 74 1013.2
20260503041330 43 295 4.0 5.0 0.00 0.01 0.00 73 1013.3
20260503040834 44 311 3.0 5.0 0.00 0.01 0.00 72 1013.2
20260503040339 44 309 3.0 5.0 0.00 0.01 0.00 71 1013.2
20260503035827 44 309 3.0 5.0 0.00 0.01 0.00 70 1013.2
20260503035330 45 315 4.0 9.0 0.00 0.01 0.01 69 1013.3
20260503034834 45 310 6.0 10.0 0.00 0.01 0.01 69 1013.4
20260503034402 45 306 5.0 10.0 0.00 0.01 0.01 70 1013.4
20260503033826 45 297 5.0 7.0 0.00 0.01 0.01 70 1013.5
20260503033330 45 317 5.0 8.0 0.00 0.01 0.01 70 1013.5
20260503032835 45 316 5.0 8.0 0.00 0.01 0.01 70 1013.5
20260503032337 45 315 4.0 6.0 0.00 0.01 0.01 70 1013.6
20260503031824 45 306 4.0 6.0 0.00 0.01 0.01 70 1013.5
20260503031332 46 310 3.0 6.0 0.00 0.01 0.01 69 1013.5
20260503030836 46 309 3.0 6.0 0.00 0.01 0.01 69 1013.4
20260503030401 47 306 4.0 6.0 0.00 0.01 0.01 69 1013.4
20260503025843 47 299 2.0 4.0 0.00 0.01 0.01 69 1013.3
20260503025332 47 299 2.0 6.0 0.00 0.02 0.01 69 1013.5
20260503024840 47 298 3.0 6.0 0.00 0.02 0.01 69 1013.6
20260503024404 47 313 1.0 4.0 0.00 0.02 0.01 69 1013.5
20260503023828 47 312 2.0 4.0 0.00 0.02 0.01 69 1013.6
20260503023332 47 332 2.0 4.0 0.00 0.02 0.01 68 1013.6
20260503022837 47 332 2.0 5.0 0.00 0.02 0.01 68 1013.7
20260503022340 47 332 3.0 6.0 0.00 0.02 0.01 68 1013.8
20260503021825 47 332 4.0 7.0 0.00 0.02 0.01 68 1013.8
20260503021333 47 328 3.0 10.0 0.00 0.02 0.01 69 1013.8
20260503020857 48 327 5.0 10.0 0.00 0.02 0.01 67 1013.7
20260503020341 48 325 5.0 10.0 0.00 0.02 0.01 67 1013.6
20260503015905 49 340 5.0 10.0 0.00 0.02 0.01 66 1013.6
20260503015326 49 341 4.0 13.0 0.00 0.02 0.01 64 1013.5
20260503014838 49 343 6.0 13.0 0.00 0.02 0.01 64 1013.6
20260503014343 49 315 6.0 13.0 0.00 0.02 0.01 64 1013.6
20260503013828 50 340 6.0 11.0 0.00 0.02 0.01 64 1013.6
20260503013332 49 333 7.0 11.0 0.00 0.02 0.01 64 1013.4
20260503012837 49 319 8.0 11.0 0.00 0.02 0.01 63 1013.4
20260503012400 50 338 5.0 8.0 0.00 0.02 0.01 63 1013.3
20260503011824 50 337 6.0 9.0 0.00 0.02 0.01 62 1013.2
20260503011328 50 335 6.0 9.0 0.00 0.02 0.01 62 1013.1
20260503010833 50 342 4.0 10.0 0.00 0.02 0.01 62 1013.1
20260503010337 50 338 6.0 10.0 0.00 0.02 0.01 61 1012.8
20260503005842 50 345 5.0 11.0 0.00 0.02 0.01 61 1012.8
20260503005330 51 355 5.0 11.0 0.00 0.02 0.01 61 1012.6
20260503004834 51 340 5.0 11.0 0.00 0.02 0.01 61 1012.6
20260503004341 51 360 7.0 11.0 0.00 0.02 0.01 60 1012.6
20260503003827 51 344 7.0 11.0 0.00 0.02 0.01 60 1012.6
20260503003335 52 323 7.0 10.0 0.00 0.02 0.01 60 1012.4
20260503002840 52 343 6.0 11.0 0.00 0.02 0.01 60 1012.2
20260503002322 52 348 4.0 6.0 0.00 0.02 0.01 62 1012.1
20260503001830 52 341 4.0 7.0 0.00 0.02 0.01 62 1012.2
20260503001334 52 338 4.0 7.0 0.00 0.02 0.01 61 1012.1
20260503000839 52 319 4.0 11.0 0.00 0.02 0.01 60 1012.1